Simultaneous Nadir Overpasses (SNOs) Predictions

Prediction of SNOs between AURA and NPP Satellite Orbit:

Table of predicted SNOs for the next 14.0 days since TLE Epoch: 4/6/2019
Index Date (AURA) Time (AURA) Lat,Lon (AURA) SZA (AURA ) Date (NPP) Time (NPP) Lat,Lon (NPP) SZA (NPP ) Distance(km) Time Diff (sec)
1 04/07/2019 12:14:57 -79.60, 73.78 94.38 04/07/2019 12:14:54 -79.60, 73.86 94.39 1.70 3
2 04/07/2019 13:03:40 80.97,-105.26 83.23 04/07/2019 13:04:54 80.77,-104.88 83.12 23.03 74
3 04/10/2019 03:42:02 79.42, 20.82 84.88 04/10/2019 03:41:07 79.43, 20.86 84.91 1.01 55
4 04/10/2019 04:31:24 -79.62,-170.20 95.42 04/10/2019 04:31:47 -79.61,-170.30 95.42 2.07 23
5 04/12/2019 19:58:29 79.44, 136.79 83.86 04/12/2019 19:58:00 79.43, 136.67 83.91 2.67 29
6 04/12/2019 20:47:48 -79.74, -53.40 96.61 04/12/2019 20:48:36 -79.74, -53.36 96.65 0.87 48
7 04/15/2019 12:14:52 79.56,-106.46 82.70 04/15/2019 12:14:48 79.56,-106.45 82.70 0.49 4
8 04/15/2019 13:04:14 -79.75, 62.57 97.61 04/15/2019 13:05:28 -79.75, 62.46 97.64 2.34 74
9 04/18/2019 03:41:57 -79.43,-159.16 98.05 04/18/2019 03:41:01 -79.43,-159.07 98.03 1.93 56




NCC Satellite Simultaneous Nadir Overpasses (SNOs) Prediction Service
